Regional Weather Roundup
Issued by NWS Upton, NY

Current Version | Previous Version | Graphics & Text | Print | Product List | Glossary Off
Versions: 1 2 3 4 5 6 7 8 9 10 11 12 13 14 15 16 17 18 19 20 21 22 23 24 25 26 27 28 29 30 31 32 33 34 35 36 37 38 39 40 41 42 43 44 45 46 47 48 49 50

000
ASUS41 KOKX 221308
RWROKX

REGIONAL WEATHER ROUNDUP
NATIONAL WEATHER SERVICE NEW YORK NY
800 AM EST SUN JAN 22 2017

NOTE: "FAIR" INDICATES FEW OR NO CLOUDS BELOW 12,000 FEET WITH NO
SIGNIFICANT WEATHER AND/OR OBSTRUCTIONS TO VISIBILITY.

NYZ071-072-176-178-NJZ106-104-221400-
NEW YORK CITY METRO AREA

CITY           SKY/WX    TMP DP  RH WIND       PRES   REMARKS
Central Park   FOG       43  43 100 NE5       29.75F VSB 1
Wall St Helipt CLOUDY    43  42  97 CALM      29.74F
LaGuardia APRT FOG       45  44  97 NE7       29.73F VSB<1/4
Kennedy INTL   CLOUDY    45  45 100 E3        29.74F FOG
Breezy Point     N/A     43 N/A N/A NE3         N/A
Newark/Liberty CLOUDY    44  43  96 NE6       29.72F FOG
Teterboro      FOG       45  45 100 CALM      29.73S VSB 1/4
$$

NYZ177-179-078>081-221400-
LONG ISLAND NEW YORK

CITY           SKY/WX    TMP DP  RH WIND       PRES   REMARKS
Jones Beach      N/A     41 N/A N/A NE6         N/A
Matinecock PT    N/A     41 N/A N/A E5          N/A
Farmingdale    FOG       44  43  96 CALM      29.74F VSB 1/4
MacArthur/ISP  FOG       43  43 100 NE3       29.74F VSB 1/8
Shirley        CLOUDY    42  42 100 N3        29.75F FOG
Westhampton    CLOUDY    42  40  92 NE5       29.76F FOG
Southampton    NOT AVBL
Bridgehampton  NOT AVBL
East Hampton   CLOUDY    40  40  99 E5        29.77R FOG
Montauk          N/A     41  41 100 S3        29.78S
$$

NYZ052-065-067-221400-
HUDSON VALLEY

CITY           SKY/WX    TMP DP  RH WIND       PRES   REMARKS
White Plains   FOG       43  42  97 E3        29.73S VSB 1/4
Newburgh       MOCLDY    37  37 100 CALM      29.74S FOG
Montgomery     FOG       40  39  97 N3        29.72F VSB<1/4
Poughkeepsie   FOG       39  39 100 CALM      29.74R VSB<1/4
Albany         FOG       39  37  92 CALM      29.77R VSB 1/2
$$

NJZ001-105-106-008-010-013-015-019>022-104-221400-
NEW JERSEY

CITY           SKY/WX    TMP DP  RH WIND       PRES   REMARKS
Newark/Liberty CLOUDY    44  43  96 NE6       29.72F FOG
Teterboro      FOG       45  45 100 CALM      29.73S VSB 1/4
Caldwell       FOG       42  42 100 NE3       29.73F VSB 1/4
Somerville     CLOUDY    43  42  97 CALM      29.69F FOG
Linden         CLOUDY    44  43  99 CALM      29.72F FOG
Sussex         FOG       39  39 100 NE5       29.71F VSB 1/4
Andover          N/A     38  37  97 NE3       29.71S
Trenton        FOG       44  44 100 N6        29.70F VSB 1/4
Millville      CLOUDY    46  46 100 N6        29.68R FOG
Atlantic City  FOG       46  44  93 NE6       29.68S VSB 1
Wrightstown    NOT AVBL
Toms River     CLOUDY    45  45 100 N6        29.70F FOG
Belmar         CLOUDY    44  44 100 N8        29.70F FOG
$$

PAZ047>061-062-071-221400-
EASTERN PENNSYLVANIA

CITY           SKY/WX    TMP DP  RH WIND       PRES   REMARKS
Philadelphia   DRIZZLE   46  45  96 N9        29.71R FOG
Allentown      FOG       42  40  92 N3        29.71S VSB 1/4
Scranton       FOG       40  40 100 NE7       29.67F VSB 1/4
$$

CTZ002-004>006-009-010-012-RIZ004-006-007-MAZ004-011-015-221400-
SOUTHERN NEW ENGLAND
 IN CT

CITY           SKY/WX    TMP DP  RH WIND       PRES   REMARKS
Bradley INTL   FOG       39  38  96 N6        29.77R VSB 1/4 WCI  35
Hartford       CLOUDY    39  39 100 CALM      29.78R FOG
Danbury        CLOUDY    39  38  96 CALM      29.75S FOG
Wtrbury/Oxford MOCLDY    41  37  87 CALM      29.75R FOG
Bridgeport     FOG       41  39  93 NE6       29.76R VSB<1/4
Meriden        CLOUDY    40  38  93 CALM      29.76S FOG
New Haven      FOG       40  40 100 SE6       29.77R VSB 1/4
Chester        FOG       39  39 100 CALM      29.76R VSB 1
Groton         FOG       40  38  93 CALM      29.76S VSB 1
Wilimantic     CLOUDY    37  36  96 NE3       29.78R FOG

 IN RI

CITY           SKY/WX    TMP DP  RH WIND       PRES   REMARKS
Providence     CLOUDY    37  37 100 CALM      29.79R FOG
Block Island   NOT AVBL
Westerly       FOG       39  36  89 N5        29.77R VSB 1/2
 IN MA

CITY           SKY/WX    TMP DP  RH WIND       PRES   REMARKS
Boston         CLOUDY    44  41  89 N3        29.79S
Worcester      CLOUDY    42  39  89 NE5       29.76R
Westfield      CLOUDY    37  37 100 N5        29.77R FOG     WCI  33
Provincetown   PTCLDY    40  40 100 CALM      29.79S
Nantucket      CLOUDY    40  39  97 N3        29.79R FOG
$$

ANZ330-335-338-340-345-350-353-355-221400-
COASTAL MARINE OBSERVATIONS


STATION/POSITION TIME  SKY/WX   TEMP    WIND        PRES    VSBY  WAVE
                                AIR SEA DIR/SP/G                  HT/PER
                 (UTC)          (F)     (DEG/KT/KT) (MB)    (MI)  (FT/S)
NY HARB ENTRANCE 1150            43 44   40/  4/  4 1006.7          3/14
20 S FIRE ISLAND 1150            45 45   10/  6/  6 1006.6          3/14
GREAT SOUTH BAY  NOT AVBL
23 SSW MONTAUK P 1150            45 47  290/  2/  4 1008.3          3/14
15 E BARNEGAT LI 1230               47                N/A           4/13
HUDSON CANYON    1150            51 51              1007.1          6/14
KINGS POINT      1230            44 40              1006.9
EXECUTION ROCKS  1245            41      30/  4/  4   N/A
CENTRAL LI SOUND 1230            41     110/  6/  8   N/A           0
EASTERN LI SOUND NOT AVBL
ROBBINS REEF     1230            44      CALM  /  1 1007.1
$$


>>>>>>>>>>>>>>>>>>>>>>>>>>>> KEY <<<<<<<<<<<<<<<<<<<<<<<<<<<
>                                                          <
>     SKY/WX - Sky Condition/Present Weather               <
>     TMP    - Temperature in Fahrenheit                   <
>     DP     - Dew Point in Fahrenheit                     <
>     RH     - Relative Humidity in Percent                <
>     WIND   - Direction (from) and Speed in MPH           <
>     PRES   - Mean Sea Level Pressure (inches of Hg)      <
>     WCI    - Wind Chill Index                            <
>     VSB    - VISIBILITY IN MILES                         <
>     HX     - HEAT INDEX                                  <
>     TC     - TEMPERATURE IN CELSIUS                      <
>     VRB    - VARIABLE WIND DIRECTION                     <
>                                                          <
>>>>>>>>>>>>>>>>>>>>>>>>>>>> KEY <<<<<<<<<<<<<<<<<<<<<<<<<<<



USA.gov is the U.S. government's official web portal to all federal, state and local government web resources and services.